Regional Weather Roundup
Issued by NWS

Home | Current Version | Previous Version | Graphics & Text | Print | Product List | Glossary On
Versions: 1 2 3 4 5 6 7 8 9 10 11 12 13 14 15 16 17 18 19 20 21 22 23 24 25 26 27 28
000
ASUS45 KCYS 251110
RWRWY

WYOMING REGIONAL WEATHER ROUNDUP
NATIONAL WEATHER SERVICE CHEYENNE WY
500 AM MDT TUE APR 25 2017

NOTE:  "FAIR" INDICATES FEW OR NO CLOUDS BELOW 12,000 FEET
WITH NO SIGNIFICANT WEATHER AND/OR OBSTRUCTIONS TO VISIBILITY.

WYZ001-251200-
YELLOWSTONE NATIONAL PARK

CITY           SKY/WX    TMP DP  RH WIND       PRES   REMARKS
LK YELLOWSTONE   N/A     27  26  96 CALM      29.65R
W YELLOWSTONE  NOT AVBL

$$
WYZ002>013-054>058-071-098>099-251200-
NORTHERN WYOMING

CITY           SKY/WX    TMP DP  RH WIND       PRES   REMARKS
JACKSON        CLOUDY    34  34 100 SW8       29.64S WCI  27
CODY           LGT RAIN  37  34  89 N14       29.64R WCI  28
GREYBULL       CLOUDY    43  34  70 NW24G31   29.53R
WORLAND        LGT RAIN  41  39  93 NW21G28   29.53R
SHERIDAN         N/A    N/A N/A N/A MISG      29.65R
BUFFALO        HVY SNOW  34  32  92 NW32G41   29.57R VSB 1/4 WCI  20
GILLETTE       LGT SNOW  34  32  92 NE22G30   29.52R WCI  22
HULETT         LGT SNOW  32  30  93 NE14G21   29.59S WCI  22
NEWCASTLE      RAIN      39  34  81 E18G25    29.51S WCI  30

$$
WYZ014>020-022>026-101>103-251200-
CENTRAL WYOMING

CITY           SKY/WX    TMP DP  RH WIND       PRES   REMARKS
BIG PINEY      FAIR      26  23  88 E3        29.66F
PINEDALE       CLOUDY    32  27  80 NW8       29.66F WCI  25
DUBOIS         CLOUDY    34  23  64 NW15G23   29.58S WCI  24
LANDER         FAIR      33  30  88 E3        29.54R
RIVERTON       FAIR      37  35  92 NE6       29.55S WCI  32
CASPER         LGT RAIN  39  36  89 W18       29.52F WCI  30
DOUGLAS        LGT RAIN  38  34  85 W13       29.52S WCI  30

$$
WYZ021-027>030-104>119-251200-
SOUTHERN WYOMING

CITY           SKY/WX    TMP DP  RH WIND       PRES   REMARKS
EVANSTON       FOG       31  31 100 SW9       29.71S VSB 3/4 WCI  23
KEMMERER         N/A     30  28  93 W15       29.69S WCI  19
FORT BRIDGER   CLOUDY    32  32 100 SW10      29.74S WCI  24
ROCK SPRINGS   MOCLDY    33  29  85 W21       29.67S WCI  21
DIXON            N/A     34  28  79 S12G17    29.73S WCI  26
RAWLINS        FAIR      32  27  81 SW18      29.62F WCI  20
SARATOGA       CLOUDY    34  28  80 SW13G18   29.67S WCI  25
LARAMIE        FAIR      32  25  75 SW20      29.59F WCI  20
CHEYENNE       FAIR      38  30  73 W13       29.57R WCI  30
TORRINGTON     FAIR      44  38  79 W9        29.51S
PINE BLUFFS    FAIR      37  36  93 W6        29.57R WCI  33

$$




USA.gov is the U.S. government's official web portal to all federal, state and local government web resources and services.